www.pogodaiklimat.ru

Погода и климат >> Архив погоды >> Кувейт >> Al-Salmi


ПОГОДА в Al-Salmi

  • Прогноз погоды в Al-Salmi
  • Монитор погоды в Al-Salmi
  • Климат города

АРХИВ ПОГОДЫ в Al-Salmi

Время (UTC), дата Ветер
(напр.,м/с)
 
Видим.   Явления Облачность Т
(С)
Тd
(С)
f
(%)
Тe
(С)
Тes
(С)
Комфортность P
(гПа)
Po
(гПа)
Тmin
(С)
Tmax
(С)
R
(мм)
R24
(мм)
S
(см)
00 14.11 ЮВ 3-7
{10}
2300 м дождь {ливн. осадки} н/о +15.1 +15.1 100 +14 +14 1015.6 1016.0
03 14.11 В 3-4
{14}
3200 м дымка {дождь} н/о +14.6 +14.6 100 +14 +14 1014.5 1015.0
06 14.11 В 5-8
{14}
2400 м слаб. ливневой дождь н/о +15.4 +15.4 100 +14 +14 1014.2 1014.0
09 14.11 ЮВ 10-15
{15}
1700 м ливневой дождь н/о +15.4 +15.4 100 +13 +13 1011.3 1011.0
12 14.11 ЮВ 5-9
{15}
2300 м дождь {ливн. осадки} н/о +16.6 +16.6 100 +16 +16 1012.0 1012.0
15 14.11 ЮВ 4-7
{12}
3100 м дождь н/о +17.0 +17.0 100 +16 +16 1012.2 1012.0
18 14.11 ЮВ 8-13
{14}
3400 м дождь н/о +17.8 +17.8 100 +17 +17 1012.3 1012.0
21 14.11 ЮВ 8 20 км в посл. час дождь {ливн. осадки} н/о +17.6 +17.6 100 +16 +16 1009.7 1010.0 +14.2 +18.0
00 15.11 ЮВ 7-12
{16}
20 км слаб. дождь н/о +17.6 +17.6 100 +17 +17 1011.3 1011.0
03 15.11 ЮВ 6-11
{16}
20 км слаб. дождь {ливн. осадки} н/о +18.0 +18.0 100 +18 +18 1013.0 1013.0
06 15.11 ЮВ 9-13
{16}
19 км слаб. дождь {ливн. осадки} н/о +18.9 +18.9 100 +20 +20 1013.6 1014.0
09 15.11 ЮВ 11-15
{17}
17 км слаб. ливневой дождь н/о +19.8 +19.8 100 +22 +22 комфорт 1012.3 1012.0
12 15.11 В 7-11
{17}
19 км в посл. час дождь {ливн. осадки} н/о +20.0 +20.0 100 +23 +23 комфорт 1012.9 1013.0
15 15.11 В 7-12
{12}
5000 м ливневой дождь н/о +18.6 +18.6 100 +19 +19 1013.8 1014.0
18 15.11 ЮВ 7-10
{14}
9000 м слаб. ливневой дождь н/о +18.6 +18.6 100 +19 +19 1013.8 1014.0
21 15.11 ЮВ 11 11 км в посл. час дождь {ливн. осадки} н/о +19.3 +19.3 100 +21 +21 комфорт 1010.4 1010.0 +17.0 +20.2
00 16.11 Ю 3-5
{23}
19 км {ливн. осадки, дождь} н/о +18.8 +18.5 98 +20 +20 1011.9 1012.0
03 16.11 З 5-6
{8}
18 км н/о +17.8 +17.7 99 +17 +17 1014.8 1015.0
06 16.11 З 4-5
{8}
20 км н/о +19.2 +15.9 81 +21 +21 комфорт 1017.1 1017.0
09 16.11 СЗ 7-9
{10}
20 км н/о +21.5 +17.2 77 +26 +26 душно 1016.6 1017.0
12 16.11 СЗ 5-6
{10}
20 км н/о +21.2 +13.7 62 +24 +24 комфорт 1017.7 1018.0
15 16.11 СЗ 2-3
{7}
20 км н/о +18.4 +15.9 85 +19 +19 1019.3 1019.0
18 16.11 СЗ 2-3
{7}
20 км н/о +16.1 +16.1 100 +16 +16 1021.5 1022.0
21 16.11 СЗ 2 10 км н/о +14.8 +14.7 99 +14 +14 1021.4 1021.0 +14.7 +21.9
00 17.11 З 3-4
{4}
2900 м дымка н/о +13.4 +13.4 100 +12 +12 1021.8 1022.0
03 17.11 СЗ 5-7
{7}
100 м туман {дымка} н/о +13.1 +13.0 99 +11 +11 1023.0 1023.0
06 17.11 СЗ 6-8
{8}
1100 м туман {дымка} н/о +14.3 +14.3 100 +12 +12 1024.1 1024.0
09 17.11 СЗ 7-9
{10}
6000 м дымка {туман} н/о +19.0 +16.4 85 +20 +20 1021.8 1022.0
12 17.11 СЗ 6-8
{10}
9000 м дымка {туман} н/о +20.0 +15.7 76 +22 +22 комфорт 1021.1 1021.0
15 17.11 СЗ 4-5
{9}
11 км н/о +16.8 +14.0 84 +16 +16 1022.0 1022.0
18 17.11 СЗ 3-3
{9}
5000 м дымка н/о +14.7 +14.7 100 +14 +14 1022.9 1023.0
21 17.11 З 3 2500 м дымка н/о +12.9 +12.9 100 +11 +11 1022.3 1022.0 +12.9 +20.1
00 18.11 З 3-4
{6}
4600 м дымка н/о +12.2 +12.2 100 +10 +10 1022.0 1022.0
03 18.11 З 4-5
{5}
5000 м дымка н/о +11.8 +11.7 99 +9 +9 1022.8 1023.0
06 18.11 СЗ 5-7
{7}
8000 м дымка н/о +16.0 +15.3 96 +15 +15 1022.8 1023.0
09 18.11 СЗ 5-8
{9}
15 км н/о +20.1 +15.1 73 +22 +22 комфорт 1021.1 1021.0
12 18.11 СЗ 7-9
{9}
19 км н/о +20.5 +12.6 60 +22 +22 комфорт 1019.3 1019.0
15 18.11 СЗ 3-4
{8}
17 км н/о +17.0 +13.9 82 +17 +17 1020.0 1020.0
18 18.11 СЗ 3-4
{8}
10 км н/о +14.9 +14.9 100 +14 +14 1020.9 1021.0
21 18.11 СЗ 3 10 км н/о +14.1 +14.0 99 +13 +13 1020.6 1021.0 +11.4 +20.6
00 19.11 СЗ 3-4
{5}
5000 м дымка н/о +12.9 +12.9 100 +11 +11 1020.2 1020.0
03 19.11 СЗ 2-3
{5}
5000 м дымка н/о +11.8 +11.8 100 +10 +10 1020.6 1021.0
06 19.11 СЗ 4-5
{5}
17 км н/о +15.7 +12.6 82 +15 +15 1021.6 1022.0
09 19.11 СЗ 5-7
{7}
19 км н/о +16.4 +12.1 76 +15 +15 1021.0 1021.0
12 19.11 З 4-6
{9}
12 км слаб. дождь {ливн. осадки} н/о +14.5 +14.4 99 +13 +13 1019.7 1020.0
15 19.11 З 2-2
{6}
10 км слаб. ливневой дождь н/о +13.8 +13.8 100 +13 +13 1020.2 1020.0
18 19.11 З 2-3
{6}
11 км {ливн. осадки, дождь} н/о +13.7 +13.7 100 +13 +13 1020.5 1021.0
21 19.11 З 3 6000 м дымка н/о +12.9 +12.9 100 +11 +11 1020.2 1020.0 +11.6 +17.0
00 20.11 З 5-7
{7}
7000 м дымка н/о +12.4 +12.4 100 +10 +10 1020.2 1020.0
03 20.11 З 4-5
{7}
19 км н/о +12.0 +11.9 99 +10 +10 1021.5 1022.0
06 20.11 З 6-7
{7}
18 км н/о +15.6 +14.4 93 +14 +14 1022.3 1022.0
09 20.11 СЗ 7-9
{10}
20 км н/о +19.2 +13.4 69 +20 +20 1020.7 1021.0
12 20.11 СЗ 6-9
{10}
20 км н/о +19.8 +12.1 61 +21 +21 комфорт 1019.4 1019.0
15 20.11 СЗ 4-5
{9}
20 км н/о +16.3 +14.1 87 +16 +16 1020.9 1021.0
18 20.11 З 3-3
{9}
14 км н/о +13.9 +13.9 100 +13 +13 1021.8 1022.0
21 20.11 ЮЗ 2 12 км н/о +13.1 +13.1 100 +12 +12 1021.2 1021.0 +11.9 +20.1

 

Местоположение метеостанции Al-Salmi (Кувейт): широта 29.10 долгота 46.68 высота над уровнем моря 287 м.

В архиве по умолчанию представлена погода в Al-Salmi за последнюю неделю. Архивные данные за месяц целиком и за предыдущие месяцы, начиная с января 2011 года, Вы можете получить, выбрав интересующий диапазон дат из раскрывающегося списка и нажав кнопку "Ввод!".


*Определитесь, кто Вы:
робот инопланетянин человек

Внимание! Время в таблицах - всемирное. Для получения местного времени необходимо прибавить поправку, которая в Al-Salmi равна 3 ч.

Смотрите также архив погоды в соседних городах и на ближайших метеорологических станциях:

Погода в Abraque Al Habari (Кувейт) (38 км)
Погода в Minagish (Кувейт) (83 км)
Погода в Jahra (Кувейт) (99 км)
Погода в Al Qaisumah (Саудовская Аравия) (102 км)
Погода в Sulaibiya (Кувейт) (103 км)
Погода в Jal Aliyah (Кувейт) (104 км)
Погода в Mitribah (Кувейт) (104 км)
Погода в Experimental Farm (Кувейт) (124 км)
Погода в Kuwait (Кувейт) (126 км)
Погода в Sabriyah (Кувейт) (134 км)

Пояснения к столбцам:

Ветер - указаны скорость ветра в м/с - средняя за 10 мин, порывы в срок и между сроками (в фигурных скобках) и направление, откуда дует ветер: С - северный, СВ - северо-восточный, В - восточный, ЮВ - юго-восточный, Ю - южный, ЮЗ - юго-западный, З - западный, СЗ - северо-западный.
Видимость - горизонтальная дальность видимости в метрах или километрах. При видимости от 1 до 10 км при отсутствии осадков обычно наблюдается дымка, при ухудшении видимости до 1 км и менее - туман. В сухую погоду видимость может ухудшаться дымом, пылью или мглою.
Явления - указаны атмосферные явления, наблюдавшиеся в срок или в последний час перед сроком; фигурными скобками обозначены явления, наблюдавшиеся между сроками (за 1-3 часа до срока); квадратными скобками обозначены град или гололедные отложения с указанием их диаметра в мм.
Облачность - указаны через наклонную черту общая и нижняя облачность в баллах и высота нижней границы облаков в метрах; квадратными скобками обозначены формы облаков: Ci - перистые, Cs - перисто-слоистые, Cc - перисто-кучевые, Ac - высококучевые, As - высокослоистые, Sc - слоисто-кучевые, Ns - слоисто-дождевые, Cu - кучевые, Cb - кучево-дождевые. Подробнее классификацию облаков см. в Атласе облаков (PDF).
T - Температура воздуха - температура, измеренная на высоте 2 м над землей.
Td - Температура точки росы - температура, при понижении до которой содержащийся в воздухе водяной пар достигнет насыщения.
f - Относительная влажность воздуха - влажноcть воздуха, измеренная на высоте 2 м над землей.
Te - Эффективная температура - температура, которую ощущает одетый по сезону человек в тени. Характеристика душности погоды. При расчете учитывается влияние влажности воздуха и скорости ветра на теплоощущения человека.
Tes - Эффективная температура на солнце - температура, которую ощущает человек, с поправкой на солнечный нагрев. Характеристика знойности погоды. Зависит от высоты солнца над горизонтом, облачности и скорости ветра. Ночью, в пасмурную погоду, а также при ветре 12 м/с и более поправка равна нулю.
P - Атмосферное давление - приведенное к уровню моря атмосферное давление.
Po - Атмосферное давление - измеренное на уровне метеостанции атмосферное давление.
Tmin - Минимальная температура - минимум температуры воздуха на высоте 2 м над землей.
Tmax - Максимальная температура - максимум температуры воздуха на высоте 2 м над землей.
R - Количество осадков - Количество выпавших осадков за период времени, мм. При наведении курсора мыши на число - период времени, за который выпало указанное количество осадков.
R24 - Количество осадков - Количество выпавших осадков за 24 часа, мм.
S - Снежный покров - Высота снежного покрова, см. При наведении курсора мыши на число - состояние снежного покрова и степень покрытия местности в баллах.